weather.gov     
National Weather Service

Regional Weather Roundup
NWS Homepage
This page is being discontinued on March 12, 2014.
The same data is available at this site. Please update your bookmarks.
Thank you, and we apologize for the inconvenience.
Please send an email to SR-SRH.Webmaster@noaa.gov with any concerns.


Current Version
Previous Version:    01  02  03  04  05  06  07  08  09  10  11  12  13  14  15  16  17  18  19  20  21  22  23  24  25  26  27  28  29  30  
   31  32  33  34  35  36  37  38  39  40  41  42  43  44  45  46  47  48  49  50  51  52  53  54  55  56  57  58  59  60  
[Printable]
872
NZUS01 KOTX 290705
RWROTX
EASTERN WASHINGTON/NORTHERN IDAHO ROUNDUP
NATIONAL WEATHER SERVICE, SPOKANE WA
1200 AM PDT TUE JUL 29 2014

Note: "fair" indicated few or no clouds below 12,000 feet with no
significant weather and/or obstructions to visibility.

...NORTHEAST WASHINGTON AND NORTHERN IDAHO PANHANDLE...

CITY           SKY/WX    TMP DP  RH WIND       PRES   REMARKS
SPOKANE INTL   CLEAR     75  43  31 W9        30.06R
SPOKANE DOWNTO CLEAR     71  50  47 NE5       30.04R
COEUR D ALENE  CLEAR     66  55  68 S3        30.06S
DEER PARK      CLEAR     61  50  67 N5        30.06R
SANDPOINT      CLEAR     61  52  72 CALM      30.07S

...SOUTHEAST WASHINGTON AND SOUTHERN IDAHO PANHANDLE...

CITY           SKY/WX    TMP DP  RH WIND       PRES   REMARKS
WALLA WALLA    CLEAR     81  47  30 E9        29.98S
PULLMAN/MOSCOW CLEAR     62  49  62 CALM      30.08S
LEWISTON       PTCLDY    82  39  21 W5        29.99R
LOWELL           N/A     69  59  70 N3        30.04R

...COLUMBIA BASIN...

CITY           SKY/WX    TMP DP  RH WIND       PRES   REMARKS
EPHRATA        CLEAR     85  44  23 N7        29.97R
MOSES LAKE     CLEAR     78  47  33 CALM      29.97R
TRI CITIES     CLEAR     69  63  81 N6        29.92R
HERMISTON      CLEAR     75  42  30 S7        29.94R
PENDLETON      PTCLDY    76  42  29 SE12      30.00R

...EAST SLOPES CASCADES...

CITY           SKY/WX    TMP DP  RH WIND       PRES   REMARKS
THE DALLES     CLEAR     80  58  46 NW15G23   29.95S
YAKIMA         CLEAR     83  51  33 NW9       29.99S
ELLENSBURG     CLEAR     76  53  44 NW16      30.04S
WENATCHEE      CLEAR     84  50  30 NW10      30.00R
OMAK           CLEAR     72  41  32 W7        29.99R

...SOUTHERN BRITISH COLUMBIA...

CITY           SKY/WX    TMP DP  RH WIND       PRES   REMARKS

...WESTERN MONTANA...

CITY           SKY/WX    TMP DP  RH WIND       PRES   REMARKS
MISSOULA       CLEAR     69  40  34 CALM      30.15R

...NEIGHBORING CITIES...

CITY           SKY/WX    TMP DP  RH WIND       PRES   REMARKS
SEATTLE        CLEAR     73  51  46 NE14      30.09S




U.S. Dept. of Commerce
NOAA National Weather Service
1325 East West Highway
Silver Spring, MD 20910
E-mail: w-nws.webmaster@noaa.gov
Page last modified: May 16, 2007
NATIONAL WEATHER SERVICE: for Safety, for Work, for Fun - FOR LIFE